Home   Weather   Louisville   Past weeks
Flag for USA

Past Weather in Louisville, Kentucky, USA — Yesterday and Last 2 Weeks

Now
41 °F

Passing clouds.


Feels Like: 41 °F
Forecast: 62 / 37 °F
Wind: No wind

Location: Standiford Field

Current Time: Apr 2, 2020 at 6:33:46 am

Latest Report: Apr 2, 2020 at 5:56 am


Visibility: 10 mi

Pressure: 30.13 "Hg

Humidity: 76%

Dew Point: 34 °F

Location of LouisvilleLocation

Past Weather in Louisville — Graph

°F

Louisville Temperature Yesterday

Maximum temperature yesterday: 56 °F (at 2:56 pm)
Minimum temperature yesterday: 44 °F (at 2:56 am)
Average temperature yesterday: 49 °F

High & Low Weather Summary for the Past Weeks

 TemperatureHumidityPressure
High82 °F (Mar 28, 12:56 pm)93% (Mar 18, 2:56 pm)30.50 "Hg (Mar 18, 2:56 pm)
Low33 °F (Mar 22, 7:56 am)26% (Mar 30, 3:56 pm)29.66 "Hg (Mar 29, 2:56 am)
Average57 °F67%30.03 "Hg
* Reported Mar 18 4:35 am — Apr 2 4:56 am, Louisville. Weather by CustomWeather, © 2020

Note: Actual official high and low records may vary slightly from our data, if they occured in-between our weather recording intervals... More about our weather records

Louisville Weather History for the Previous 24 Hours

Scroll right to see more
 ConditionsComfort  
Time TempWeatherWind HumidityBarometerVisibility
4:56 am
Thu, Apr 2
42 °FPassing clouds.3 mph76%30.11 "Hg10 mi
3:56 am43 °FPassing clouds.No wind74%30.12 "Hg10 mi
2:56 am43 °FPassing clouds.No wind76%30.12 "Hg10 mi
1:56 am45 °FPassing clouds.No wind71%30.12 "Hg10 mi
12:56 am47 °FClear.No wind66%30.11 "Hg10 mi
11:56 pm
Wed, Apr 1
49 °FPassing clouds.No wind61%30.11 "Hg10 mi
10:56 pm50 °FPassing clouds.5 mph59%30.10 "Hg10 mi
9:56 pm52 °FOvercast.5 mph53%30.09 "Hg10 mi
8:56 pm53 °FOvercast.6 mph51%30.08 "Hg10 mi
7:56 pm54 °FOvercast.8 mph49%30.06 "Hg10 mi
6:56 pm54 °FOvercast.6 mph49%30.05 "Hg10 mi
5:56 pm56 °FOvercast.7 mph46%30.03 "Hg10 mi
4:56 pm55 °FOvercast.12 mph45%30.03 "Hg10 mi
3:56 pm54 °FMore clouds than sun.9 mph49%30.03 "Hg10 mi
2:56 pm56 °FPartly sunny.8 mph51%30.04 "Hg10 mi
1:56 pm52 °FOvercast.6 mph57%30.05 "Hg10 mi
1:21 pm52 °FOvercast.8 mph57%30.05 "Hg10 mi
12:56 pm51 °FMostly cloudy.8 mph59%30.06 "Hg10 mi
11:56 am49 °FOvercast.9 mph64%30.06 "Hg10 mi
10:56 am48 °FOvercast.14 mph63%30.05 "Hg10 mi
9:56 am47 °FOvercast.12 mph66%30.03 "Hg10 mi
8:56 am45 °FOvercast.9 mph71%30.02 "Hg10 mi
7:56 am45 °FPartly sunny.10 mph71%30.00 "Hg10 mi
6:56 am45 °FOvercast.10 mph71%29.97 "Hg10 mi
Weather by CustomWeather, © 2020

See weather overview

Advertising